Weather History for Trinity Center, CA

Change the Weather History Date:

Monday, April 29, 2013

  Actual Average (KMHS) Record (KMHS)
Temperature  
Mean Temperature 64 °F 50 °F  
Max Temperature 75 °F 64 °F 84 °F (1981)
Min Temperature 53 °F 36 °F 25 °F (1950)
Degree Days  
Heating Degree Days 1 15  
Month to date heating degree days 521  
Since 1 July heating degree days 5200  
Cooling Degree Days 0 0  
Month to date cooling degree days 0  
Year to date cooling degree days 0  
Growing Degree Days 14 (Base 50)    
Moisture  
Dew Point 38 °F    
Average Humidity 40    
Maximum Humidity 58    
Minimum Humidity 28    
Precipitation  
Precipitation 0.00 in 0.08 in 1.17 in (1941)
Month to date precipitation 2.86  
Year to date precipitation 23.11  
Sea Level Pressure  
Sea Level Pressure 30.04 in    
Wind  
Wind Speed 7 mph (North)    
Max Wind Speed 18 mph    
Max Gust Speed 26 mph    
Visibility 10 miles    
Events      
T = Trace of Precipitation, MM = Missing Value Source: NWS Daily Summary

Daily Weather History Graph

Daily Weather History Graph

Search for Another Location

Airport:

Trip Planner

Search our weather history database for the weather conditions in past years. The results will help you decide how hot, cold, wet, or windy it might be!

Date:

Astronomy

Apr. 29, 2013 Rise Set
Actual Time 6:11 AM PDT 8:05 PM PDT
Civil Twilight 5:41 AM PDT 8:35 PM PDT
Nautical Twilight 5:05 AM PDT 9:11 PM PDT
Astronomical Twilight 4:26 AM PDT 9:51 PM PDT
Moon No Moon Rise 9:37 AM PDT (4/29)
Length of Visible Light 14h 54m
Length of Day
13h 54m
Waning Gibbous, 79% of the Moon is Illuminated
Apr 29
Waning Gibbous
May 2
Last Quarter
May 9
New
May 17
First Quarter
May 24
Full

Hourly Weather History & Observations

Time (PDT) Temp. Dew Point Humidity Pressure Visibility Wind Dir Wind Speed Gust Speed Precip Events Conditions
12:10 AM 64.4 °F 35.6 °F 34% 30.13 in 10.0 mi NE 10.4 mph - N/A   Clear
12:30 AM 64.4 °F 35.6 °F 34% 30.13 in 10.0 mi NNE 8.1 mph 17.3 mph N/A   Clear
12:50 AM 64.4 °F 35.6 °F 34% 30.13 in 10.0 mi NNE 9.2 mph - N/A   Clear
1:10 AM 59.0 °F 35.6 °F 42% 30.12 in 10.0 mi WNW 4.6 mph - N/A   Clear
1:30 AM 59.0 °F 35.6 °F 42% 30.12 in 10.0 mi West 3.5 mph - N/A   Clear
1:50 AM 55.4 °F 35.6 °F 47% 30.11 in 10.0 mi Calm Calm - N/A   Clear
2:10 AM 57.2 °F 35.6 °F 44% 30.11 in 10.0 mi NNW 4.6 mph - N/A   Clear
2:30 AM 57.2 °F 35.6 °F 44% 30.10 in 10.0 mi North 5.8 mph - N/A   Clear
2:50 AM 53.6 °F 37.4 °F 54% 30.10 in 10.0 mi NNE 3.5 mph - N/A   Clear
3:10 AM 53.6 °F 37.4 °F 54% 30.10 in 10.0 mi WNW 3.5 mph - N/A   Clear
3:30 AM 53.6 °F 37.4 °F 54% 30.10 in 10.0 mi SSW 3.5 mph - N/A   Clear
3:50 AM 53.6 °F 37.4 °F 54% 30.09 in 10.0 mi WSW 3.5 mph - N/A   Clear
4:10 AM 53.6 °F 37.4 °F 54% 30.10 in 10.0 mi Calm Calm - N/A   Clear
4:30 AM 55.4 °F 37.4 °F 51% 30.10 in 10.0 mi North 8.1 mph - N/A   Clear
4:50 AM 57.2 °F 37.4 °F 48% 30.09 in 10.0 mi NNW 8.1 mph - N/A   Clear
5:10 AM 55.4 °F 37.4 °F 51% 30.09 in 10.0 mi NW 4.6 mph - N/A   Clear
5:30 AM 55.4 °F 37.4 °F 51% 30.08 in 10.0 mi NW 3.5 mph - N/A   Clear
5:50 AM 53.6 °F 39.2 °F 58% 30.08 in 10.0 mi Calm Calm - N/A   Clear
6:10 AM 53.6 °F 39.2 °F 58% 30.07 in 10.0 mi NNW 5.8 mph - N/A   Clear
6:30 AM 55.4 °F 37.4 °F 51% 30.08 in 10.0 mi North 4.6 mph - N/A   Clear
6:50 AM 57.2 °F 37.4 °F 48% 30.08 in 10.0 mi NNW 6.9 mph - N/A   Clear
7:10 AM 57.2 °F 39.2 °F 51% 30.09 in 10.0 mi NNW 4.6 mph - N/A   Clear
7:30 AM 59.0 °F 39.2 °F 48% 30.09 in 10.0 mi North 8.1 mph - N/A   Clear
7:50 AM 60.8 °F 39.2 °F 45% 30.09 in 10.0 mi NNE 5.8 mph 17.3 mph N/A   Clear
8:10 AM 62.6 °F 39.2 °F 42% 30.09 in 10.0 mi North 9.2 mph 19.6 mph N/A   Clear
8:30 AM 62.6 °F 37.4 °F 39% 30.10 in 10.0 mi North 8.1 mph 18.4 mph N/A   Clear
8:50 AM 62.6 °F 39.2 °F 42% 30.10 in 10.0 mi North 10.4 mph 17.3 mph N/A   Clear
9:10 AM 64.4 °F 39.2 °F 40% 30.09 in 10.0 mi NE 13.8 mph 20.7 mph N/A   Clear
9:30 AM 64.4 °F 39.2 °F 40% 30.10 in 10.0 mi NNE 10.4 mph 18.4 mph N/A   Clear
9:50 AM 64.4 °F 39.2 °F 40% 30.10 in 10.0 mi NNE 17.3 mph 24.2 mph N/A   Clear
10:10 AM 64.4 °F 39.2 °F 40% 30.09 in 10.0 mi NE 18.4 mph 26.5 mph N/A   Clear
10:30 AM 62.6 °F 39.2 °F 42% 30.10 in 10.0 mi NNE 12.7 mph 21.9 mph N/A   Clear
10:50 AM 66.2 °F 41.0 °F 40% 30.09 in 10.0 mi NNE 9.2 mph 19.6 mph N/A   Clear
11:10 AM 66.2 °F 39.2 °F 37% 30.09 in 10.0 mi North 9.2 mph 17.3 mph N/A   Clear
11:30 AM 68.0 °F 39.2 °F 35% 30.09 in 10.0 mi NNE 9.2 mph 20.7 mph N/A   Clear
11:50 AM 66.2 °F 41.0 °F 40% 30.08 in 10.0 mi NNE 10.4 mph - N/A   Clear
12:10 PM 66.2 °F 39.2 °F 37% 30.07 in 10.0 mi NNE 10.4 mph 19.6 mph N/A   Clear
12:30 PM 68.0 °F 41.0 °F 37% 30.07 in 10.0 mi NE 6.9 mph 17.3 mph N/A   Clear
12:50 PM 68.0 °F 41.0 °F 37% 30.05 in 10.0 mi North 4.6 mph 17.3 mph N/A   Clear
1:10 PM 69.8 °F 41.0 °F 35% 30.04 in 10.0 mi NNE 5.8 mph - N/A   Clear
1:30 PM 69.8 °F 39.2 °F 33% 30.04 in 10.0 mi NNE 4.6 mph - N/A   Clear
1:50 PM 71.6 °F 41.0 °F 33% 30.03 in 10.0 mi NNE 4.6 mph - N/A   Clear
2:10 PM 71.6 °F 41.0 °F 33% 30.02 in 10.0 mi Calm Calm - N/A   Clear
2:30 PM 71.6 °F 41.0 °F 33% 30.01 in 10.0 mi SSE 5.8 mph - N/A   Clear
2:50 PM 71.6 °F 39.2 °F 31% 30.00 in 10.0 mi SSE 3.5 mph - N/A   Clear
3:10 PM 73.4 °F 41.0 °F 31% 29.99 in 10.0 mi SE 4.6 mph - N/A   Clear
3:30 PM 73.4 °F 41.0 °F 31% 29.97 in 10.0 mi SE 4.6 mph - N/A   Clear
3:50 PM 73.4 °F 41.0 °F 31% 29.97 in 10.0 mi SE 3.5 mph - N/A   Clear
4:10 PM 73.4 °F 41.0 °F 31% 29.96 in 10.0 mi East 3.5 mph - N/A   Clear
4:30 PM 75.2 °F 42.8 °F 31% 29.95 in 10.0 mi North 6.9 mph - N/A   Clear
4:50 PM 75.2 °F 41.0 °F 29% 29.95 in 10.0 mi North 10.4 mph - N/A   Clear
5:10 PM 75.2 °F 41.0 °F 29% 29.94 in 10.0 mi North 5.8 mph - N/A   Clear
5:30 PM 73.4 °F 41.0 °F 31% 29.94 in 10.0 mi North 11.5 mph 19.6 mph N/A   Clear
5:50 PM 73.4 °F 41.0 °F 31% 29.94 in 10.0 mi North 8.1 mph - N/A   Clear
6:10 PM 71.6 °F 39.2 °F 31% 29.95 in 10.0 mi North 9.2 mph 18.4 mph N/A   Clear
6:30 PM 71.6 °F 39.2 °F 31% 29.95 in 10.0 mi North 12.7 mph 18.4 mph N/A   Clear
6:50 PM 69.8 °F 35.6 °F 28% 29.95 in 10.0 mi North 10.4 mph 20.7 mph N/A   Clear
7:10 PM 68.0 °F 35.6 °F 30% 29.95 in 10.0 mi NNW 11.5 mph 19.6 mph N/A   Clear
7:30 PM 68.0 °F 33.8 °F 28% 29.96 in 10.0 mi NNW 12.7 mph 21.9 mph N/A   Clear
7:50 PM 66.2 °F 35.6 °F 32% 29.96 in 10.0 mi North 11.5 mph 20.7 mph N/A   Clear
8:10 PM 66.2 °F 37.4 °F 35% 29.97 in 10.0 mi North 9.2 mph 18.4 mph N/A   Clear
8:30 PM 64.4 °F 37.4 °F 37% 29.97 in 10.0 mi North 10.4 mph 18.4 mph N/A   Clear
8:50 PM 64.4 °F 37.4 °F 37% 29.98 in 10.0 mi North 8.1 mph 19.6 mph N/A   Clear
9:10 PM 62.6 °F 37.4 °F 39% 29.99 in 10.0 mi North 10.4 mph 19.6 mph N/A   Clear
9:30 PM 62.6 °F 37.4 °F 39% 30.00 in 10.0 mi North 9.2 mph - N/A   Clear
9:50 PM 62.6 °F 35.6 °F 37% 30.01 in 10.0 mi North 5.8 mph 18.4 mph N/A   Clear
10:10 PM 60.8 °F 35.6 °F 39% 30.01 in 10.0 mi North 5.8 mph - N/A   Clear
10:30 PM 59.0 °F 35.6 °F 42% 30.01 in 10.0 mi North 6.9 mph - N/A   Clear
10:50 PM 59.0 °F 33.8 °F 39% 30.01 in 10.0 mi NNW 9.2 mph - N/A   Clear
11:10 PM 59.0 °F 32.0 °F 36% 30.00 in 10.0 mi NNW 11.5 mph 17.3 mph N/A   Clear
11:30 PM 57.2 °F 32.0 °F 38% 30.00 in 10.0 mi NNW 9.2 mph - N/A   Clear
11:50 PM 57.2 °F 32.0 °F 38% 30.01 in 10.0 mi North 12.7 mph 20.7 mph N/A   Clear